Overview Statistics Trail Chart Weather Telemetry Raw packets
 

This is the latest recevied weather packets stored in our database for station/object N5ATR. If no packets are shown the sender has not sent any weather packets the latest 10 day(s).

<< 81 82 83 84 85 86 87 >>
Time Temp. Humidity Pressure Rain* Wind** Luminosity Snow
1788099907 20.56° C 56% 1024.5 hPa 0 mm - 138 W/m² -
1788099602 20° C 58% 1024.6 hPa 0 mm - 64 W/m² -
1788099297 20° C 60% 1024.6 hPa 0 mm - 51 W/m² -
1788098992 19.44° C 60% 1024.7 hPa 0 mm - 41 W/m² -
1788098693 19.44° C 60% 1024.5 hPa 0 mm - 42 W/m² -
1788098392 19.44° C 60% 1024.4 hPa 0 mm - 46 W/m² -
1788098088 18.89° C 59% 1024.5 hPa 0 mm - 41 W/m² -
1788097783 18.89° C 60% 1024.6 hPa 0 mm - 43 W/m² -
1788097479 18.33° C 61% 1024.5 hPa 0 mm - 45 W/m² -
1788097174 17.78° C 63% 1024.6 hPa 0 mm - 45 W/m² -
1788096870 16.67° C 65% 1024.1 hPa 0 mm - 43 W/m² -
1788096565 16.67° C 67% 1024.5 hPa 0 mm - 43 W/m² -
1788096261 16.11° C 68% 1024.1 hPa 0 mm - 42 W/m² -
1788095960 16.67° C 68% 1023.9 hPa 0 mm - 40 W/m² -
1788095659 16.11° C 67% 1024.1 hPa 0 mm - 36 W/m² -
1788095354 16.11° C 68% 1023.9 hPa 0 mm - 31 W/m² -
1788095050 15.56° C 69% 1024.1 hPa 0 mm - 25 W/m² -
1788094748 15.56° C 70% 1024.1 hPa 0 mm - 20 W/m² -
1788094445 15.56° C 70% 1024.1 hPa 0 mm - 15 W/m² -
1788094142 15.56° C 70% 1024 hPa 0 mm - 11 W/m² -
1788093837 16.11° C 69% 1024 hPa 0 mm - 7 W/m² -
1788093534 15.56° C 69% 1024.1 hPa 0 mm - 4 W/m² -
1788093230 15.56° C 70% 1024 hPa 0 mm - 2 W/m² -
1788092928 15.56° C 70% 1024 hPa 0 mm - 1 W/m² -
1788092625 15° C 71% 1024.1 hPa 0 mm - 0 W/m² -

* Rain latest hour (hover to see other rain measurements)
** Current wind speed in m/s (hover to see current wind gust speed)